Torna al catalogo

ARIANE 3 DEB

AttivoGTO
NORAD 33536·DEBRIS·🇫🇷 France

Lanciato Sep 8, 1988 da Guiana Space Centre

Loading…

TLE

ObsoletoSource: Space-Track

Epoca: Sep 14, 2026, 03:12 UTC

1 33536U 88081L   26257.13399383 -.00000065  00000-0  00000-0 0  9998
2 33536   6.1905 255.8703 6974507 196.7802 302.7128  2.15745884175475

Traccia ARIANE 3 DEB in tempo reale con AllMySat

Download on the App Store